Regional Weather Roundup
Issued by NWS

Home | Current Version | Previous Version | Graphics & Text | Print | Product List | Glossary On
Versions: 1 2 3 4 5 6 7 8 9 10 11 12 13 14 15 16 17 18 19 20 21 22 23 24 25 26 27 28 29 30 31 32 33 34 35 36 37 38 39 40 41 42 43 44 45 46 47 48 49 50
000
ASUS43 KIND 231159
RWRIN

WEATHER ROUNDUP FOR INDIANA
NATIONAL WEATHER SERVICE INDIANAPOLIS IN
800 AM EDT WED APR 23 2014

NOTE: "FAIR" INDICATES FEW OR NO CLOUDS BELOW 12,000 FEET WITH NO
SIGNIFICANT WEATHER AND/OR OBSTRUCTIONS TO VISIBILITY.

* - STATION DOES NOT REPORT WEATHER SUCH AS PRECIPITATION OR FOG.

+ - STATION NOT QUALITY CONTROLLED BY THE NATIONAL WEATHER SERVICE.
    USE DATA WITH CAUTION...ESPECIALLY DEWPOINT AND RELATIVE
    HUMIDITY OBSERVATIONS.

INZ001>003-010>013-019-020-231300-
NORTHWEST INDIANA

CITY           SKY/WX    TMP DP  RH WIND       PRES   REMARKS
GARY /AIRPORT/ MOSUNNY   37  28  70 N17G29    30.16R
VALPARAISO     SUNNY     34  28  79 N8        30.14R WCI  27
6HR MIN TEMP:  33; 6HR MAX TEMP:  36;


$$

LMZ046-743>745-231300-
SOUTHERN LAKE MICHIGAN

STATION/POSITION TIME  TEMP WIND        PRES
                       AIR  DIR/SP/G
                 (UTC) (F)  (DEG/KT/KT) (MB)
MICHIGAN CITY    1100   36  360/ 20/ 23   N/A

$$

INZ004-005-014>016-021>024-231300-
NORTH CENTRAL INDIANA

CITY           SKY/WX    TMP DP  RH WIND       PRES   REMARKS
ELKHART        SUNNY     34  27  75 NW7       30.12R WCI  28
GOSHEN         SUNNY     35  27  72 VRB6      30.11R WCI  30
6HR MIN TEMP:  32; 6HR MAX TEMP:  38;

SOUTH BEND     SUNNY     35  27  72 N9        30.13R WCI  28
6HR MIN TEMP:  32; 6HR MAX TEMP:  37;


$$

INZ006>009-017-018-025>027-231300-
NORTHEAST INDIANA

CITY           SKY/WX    TMP DP  RH WIND       PRES   REMARKS
ANGOLA *+      SUNNY     34  28  80 N8        30.07S WCI  27
FORT WAYNE     SUNNY     36  28  73 N10       30.09R
6HR MIN TEMP:  33; 6HR MAX TEMP:  39;


$$

INZ028-029-035-036-043>045-051>053-231300-
WEST CENTRAL INDIANA

CITY           SKY/WX    TMP DP  RH WIND       PRES   REMARKS
GREENCASTLE +  SUNNY     36  30  80 N8        30.12R
LAFAYETTE      SUNNY     35  28  75 N7        30.13R WCI  29
6HR MIN TEMP:  31; 6HR MAX TEMP:  39;

TERRE HAUTE    SUNNY     40  30  67 N5        30.13R
6HR MIN TEMP:  38; 6HR MAX TEMP:  47;


$$

INZ030>032-037>040-046>048-054>057-064-065-231300-
CENTRAL INDIANA

CITY           SKY/WX    TMP DP  RH WIND       PRES   REMARKS
COLUMBUS       SUNNY     37  30  75 N6        30.10R
INDIANAPOLIS   SUNNY     37  28  70 N8        30.10R
6HR MIN TEMP:  34; 6HR MAX TEMP:  42;

-EAGLE CREEK   SUNNY     38  28  67 N7        30.10R
6HR MIN TEMP:  37; 6HR MAX TEMP:  43;

KOKOMO *+      SUNNY     36  28  75 NW7       30.11R
MT COMFORT *+  SUNNY     37  30  75 N9        30.10R
SHELBYVILLE    SUNNY     39  29  67 NW7       30.10R
6HR MIN TEMP:  36; 6HR MAX TEMP:  42;


$$

INZ033-034-041-042-049-050-058-059-231300-
EAST CENTRAL INDIANA

CITY           SKY/WX    TMP DP  RH WIND       PRES   REMARKS
MUNCIE         SUNNY     34  29  82 NW5       30.09R WCI  30
6HR MIN TEMP:  32; 6HR MAX TEMP:  39;


$$

INZ060-061-067>069-081>083-085>088-231300-
SOUTHWEST INDIANA

CITY           SKY/WX    TMP DP  RH WIND       PRES   REMARKS
EVANSVILLE     CLEAR     46  36  68 NE7       30.11R
6HR MIN TEMP:  44; 6HR MAX TEMP:  54;

HUNTINGBURG *+ SUNNY     43  32  65 N6        30.11R
6HR MIN TEMP:  41; 6HR MAX TEMP:  48;


$$

INZ062-063-066-070>080-084-089>092-231300-
SOUTH CENTRAL AND SOUTHEAST INDIANA

CITY           SKY/WX    TMP DP  RH WIND       PRES   REMARKS
BLOOMINGTON    SUNNY     38  29  70 N7        30.10R
6HR MIN TEMP:  36; 6HR MAX TEMP:  46;


$$




USA.gov is the U.S. government's official web portal to all federal, state and local government web resources and services.